Location: The Saddle
(36.8333°N, 80.3417°W)
Time: 07:13:24
(UTC-04:00)

Vanguard 2 Rocket - Pass Details

Date: 08 February 2023
Orbit: 555 x 3316 km, 32.9° (Epoch: 27 March)

Event Time Altitude Azimuth Distance (km) Brightness Sun altitude
Rises 13:26:39 0° 270° (W) 2,910 9.7 36.9°
Reaches altitude 10° 13:29:22 10° 255° (WSW) 1,872 9.0 36.7°
Maximum altitude 13:32:38 23° 200° (SSW) 1,178 9.6 36.5°
Drops below altitude 10° 13:35:55 10° 146° (SE) 1,896 9.1 36.3°
Sets 13:38:42 0° 131° (SE) 2,958 9.8 36.2°
